Weather History for Ann Arbor, MI

Change the Weather History Date:

Monday, May 6, 2013

  Actual Average Record
Temperature  
Mean Temperature 60 °F -  
Max Temperature 73 °F 66 °F 84 °F (2000)
Min Temperature 46 °F 42 °F 26 °F (2005)
Degree Days  
Heating Degree Days 6    
Growing Degree Days 10 (Base 50)    
Moisture  
Dew Point 43 °F    
Average Humidity 54    
Maximum Humidity 77    
Minimum Humidity 38    
Precipitation  
Precipitation 0.00 in - - ()
Sea Level Pressure  
Sea Level Pressure 30.02 in    
Wind  
Wind Speed 6 mph (East)    
Max Wind Speed 13 mph    
Max Gust Speed 17 mph    
Visibility 10 miles    
Events      
Averages and records for this station are not official NWS values.
T = Trace of Precipitation, MM = Missing Value Source: NWS Daily Summary

Daily Weather History Graph

Daily Weather History Graph

Search for Another Location

Airport:

Trip Planner

Search our weather history database for the weather conditions in past years. The results will help you decide how hot, cold, wet, or windy it might be!

Date:

Astronomy

May. 06, 2013 Rise Set
Actual Time 6:23 AM EDT 8:40 PM EDT
Civil Twilight 5:52 AM EDT 9:11 PM EDT
Nautical Twilight 5:14 AM EDT 9:49 PM EDT
Astronomical Twilight 4:31 AM EDT 10:32 PM EDT
Moon 4:28 AM EDT (5/6) 5:36 PM EDT (5/6)
Length of Visible Light 15h 18m
Length of Day
14h 16m
Waning Crescent, 11% of the Moon is Illuminated
May 6
Waning Crescent
May 9
New
May 18
First Quarter
May 25
Full
May 31
Last Quarter

Hourly Weather History & Observations

Time (EDT) Temp. Windchill Dew Point Humidity Pressure Visibility Wind Dir Wind Speed Gust Speed Precip Events Conditions
12:53 AM 55.0 °F - 37.9 °F 53% 30.03 in 10.0 mi ENE 5.8 mph - N/A   Clear
1:53 AM 53.1 °F - 37.0 °F 55% 30.02 in 10.0 mi ENE 5.8 mph - N/A   Clear
2:53 AM 50.0 °F - 37.0 °F 61% 30.02 in 10.0 mi ENE 4.6 mph - N/A   Clear
3:53 AM 48.0 °F - 37.0 °F 66% 30.01 in 10.0 mi ENE 4.6 mph - N/A   Clear
4:53 AM 46.0 °F 44.8 °F 37.9 °F 73% 30.01 in 10.0 mi ENE 3.5 mph - N/A   Clear
5:53 AM 46.9 °F - 37.9 °F 71% 30.02 in 10.0 mi ENE 3.5 mph - N/A   Clear
6:53 AM 46.9 °F - 39.0 °F 74% 30.04 in 10.0 mi ENE 4.6 mph - N/A   Clear
7:53 AM 54.0 °F - 41.0 °F 62% 30.05 in 10.0 mi East 4.6 mph - N/A   Clear
8:53 AM 55.9 °F - 39.0 °F 53% 30.06 in 10.0 mi East 5.8 mph - N/A   Clear
9:53 AM 61.0 °F - 39.9 °F 46% 30.06 in 10.0 mi East 5.8 mph - N/A   Clear
10:53 AM 63.0 °F - 39.9 °F 43% 30.06 in 10.0 mi East 5.8 mph - N/A   Clear
11:53 AM 66.0 °F - 42.1 °F 42% 30.06 in 10.0 mi East 8.1 mph - N/A   Clear
12:53 PM 69.1 °F - 44.1 °F 40% 30.04 in 10.0 mi Variable 3.5 mph - N/A   Clear
1:53 PM 72.0 °F - 45.0 °F 38% 30.02 in 10.0 mi NE 10.4 mph 17.3 mph N/A   Clear
2:53 PM 73.0 °F - 48.0 °F 41% 30.01 in 10.0 mi ENE 9.2 mph - N/A   Clear
3:53 PM 73.0 °F - 48.0 °F 41% 30.00 in 10.0 mi East 12.7 mph - N/A   Clear
4:53 PM 73.0 °F - 48.0 °F 41% 29.98 in 10.0 mi SE 9.2 mph - N/A   Clear
5:53 PM 73.0 °F - 48.0 °F 41% 29.98 in 10.0 mi ESE 10.4 mph - N/A   Clear
6:53 PM 71.1 °F - 45.0 °F 39% 29.99 in 10.0 mi SE 9.2 mph - N/A   Clear
7:53 PM 66.9 °F - 46.9 °F 49% 29.99 in 10.0 mi ESE 5.8 mph - N/A   Clear
8:53 PM 63.0 °F - 45.0 °F 52% 30.00 in 10.0 mi Calm Calm - N/A   Clear
9:53 PM 57.9 °F - 46.0 °F 65% 30.01 in 10.0 mi Calm Calm - N/A   Clear
10:53 PM 55.0 °F - 46.0 °F 72% 30.03 in 10.0 mi Calm Calm - N/A   Clear
11:53 PM 53.1 °F - 46.0 °F 77% 30.03 in 10.0 mi Calm Calm - N/A   Clear